Location: Dunedin
(45.8670°S, 170.5000°E)
Time: 05:32:02
(UTC+13:00)

Lacrosse 5 - Pass Details

Date: 24 January 2019
Orbit: 713 x 725 km, 57.0° (Epoch: 17 February)

Event Time Altitude Azimuth Distance (km) Brightness Sun altitude
Rises 22:50:30 0° 241° (WSW) 3,169 6.7 -13.3°
Reaches altitude 10° 22:53:33 10° 259° (WSW) 2,237 5.3 -13.6°
Maximum altitude 22:57:01 18° 301° (WNW) 1,725 4.0 -14.0°
Drops below altitude 10° 23:00:28 10° 344° (NNW) 2,214 4.1 -14.4°
Enters shadow 23:01:11 - 349° (N) 2,407 4.2 -14.5°
